Stockton, CA

12:48 AM PST on February 12, 2016 (GMT -0800)
Stockton Metro

Weather History for KSCK - September, 2012

Change the Weather History Date:

Monday, September 10, 2012

  Actual Average Record
Temperature  
Mean Temperature 72 °F -  
Max Temperature 91 °F 89 °F 108 °F (2015)
Min Temperature 52 °F 58 °F 47 °F (1985)
Degree Days  
Heating Degree Days 0 0  
Month to date heating degree days 0 0  
Since 1 July heating degree days 0 0  
Cooling Degree Days 7 8  
Month to date cooling degree days 85 90  
Year to date cooling degree days 1132 1134  
Growing Degree Days 21 (Base 50)    
Moisture  
Dew Point 47 °F    
Average Humidity 50    
Maximum Humidity 83    
Minimum Humidity 17    
Precipitation  
Precipitation 0.00 in 0.01 in 0.05 in (1960)
Month to date precipitation T 0.04  
Year to date precipitation 6.48 9.08  
Since 1 July precipitation 0.01  
Snow  
Snow 0.00 in - - ()
Month to date snowfall 0.0  
Since 1 July snowfall 0.0  
Since 1 September snowfall 0.0  
Snow Depth -    
Sea Level Pressure  
Sea Level Pressure 29.84 in    
Wind  
Wind Speed 8 mph (WNW)    
Max Wind Speed 18 mph    
Max Gust Speed 36 mph    
Visibility 10 miles    
Events      
T = Trace of Precipitation, MM = Missing Value Source: NWS Daily Summary

Daily Weather History Graph

Daily Weather History Graph

Search for Another Location

Airport or City:

Trip Planner

Search our weather history database for the weather conditions in past years. The results will help you decide how hot, cold, wet, or windy it might be!

Date:

Astronomy

Sep. 10, 2012 Rise Set
Actual Time 6:43 AM PDT 7:19 PM PDT
Civil Twilight 6:16 AM PDT 7:46 PM PDT
Nautical Twilight 5:45 AM PDT 8:17 PM PDT
Astronomical Twilight 5:13 AM PDT 8:49 PM PDT
Moon 1:13 AM PDT (9/10) 3:49 PM PDT (9/10)
Length of Visible Light 13h 29m
Length of Day
12h 36m
Waning Crescent, 29% of the Moon is Illuminated
Sep 10
Waning Crescent
Sep 15
New
Sep 22
First Quarter
Sep 29
Full
Oct 8
Last Quarter

Hourly Weather History & Observations

Time (PDT) Temp. Dew Point Humidity Pressure Visibility Wind Dir Wind Speed Gust Speed Precip Events Conditions
12:55 AM 62.1 °F 45.0 °F 53% 29.87 in 10.0 mi WNW 10.4 mph - N/A   Clear
1:55 AM 59.0 °F 46.0 °F 62% 29.87 in 10.0 mi NW 8.1 mph - N/A   Clear
2:55 AM 60.1 °F 44.1 °F 55% 29.86 in 10.0 mi NW 5.8 mph - N/A   Clear
3:55 AM 57.9 °F 44.1 °F 60% 29.86 in 10.0 mi WNW 5.8 mph - N/A   Clear
4:55 AM 57.0 °F 46.0 °F 67% 29.86 in 10.0 mi WNW 5.8 mph - N/A   Clear
5:55 AM 54.0 °F 46.0 °F 75% 29.86 in 10.0 mi WNW 5.8 mph - N/A   Clear
6:55 AM 54.0 °F 48.0 °F 80% 29.88 in 10.0 mi North 3.5 mph - N/A   Clear
7:55 AM 60.1 °F 52.0 °F 75% 29.89 in 10.0 mi NW 5.8 mph - N/A   Clear
8:55 AM 64.9 °F 52.0 °F 63% 29.90 in 10.0 mi NW 9.2 mph - N/A   Clear
9:55 AM 68.0 °F 54.0 °F 61% 29.91 in 10.0 mi WNW 10.4 mph - N/A   Clear
10:55 AM 71.1 °F 54.0 °F 55% 29.90 in 10.0 mi WNW 10.4 mph - N/A   Clear
11:55 AM 75.0 °F 53.1 °F 46% 29.89 in 10.0 mi WNW 6.9 mph - N/A   Clear
12:55 PM 81.0 °F 52.0 °F 36% 29.87 in 10.0 mi WNW 5.8 mph - N/A   Clear
1:55 PM 84.9 °F 51.1 °F 31% 29.84 in 10.0 mi WNW 8.1 mph - N/A   Clear
2:55 PM 89.1 °F 46.9 °F 23% 29.82 in 10.0 mi WNW 9.2 mph - N/A   Clear
3:55 PM 90.0 °F 46.0 °F 22% 29.79 in 10.0 mi WNW 9.2 mph - N/A   Clear
4:55 PM 90.0 °F 39.0 °F 17% 29.78 in 10.0 mi NW 12.7 mph - N/A   Clear
5:55 PM 90.0 °F 33.1 °F 13% 29.77 in 10.0 mi NW 6.9 mph - N/A   Clear
6:55 PM 86.0 °F 46.9 °F 26% 29.76 in 10.0 mi NW 10.4 mph - N/A   Clear
7:55 PM 80.1 °F 44.1 °F 28% 29.77 in 10.0 mi WNW 9.2 mph - N/A   Clear
8:55 PM 75.0 °F 48.9 °F 40% 29.79 in 10.0 mi West 4.6 mph - N/A   Clear
9:55 PM 73.0 °F 45.0 °F 37% 29.80 in 10.0 mi West 9.2 mph - N/A   Clear
10:55 PM 72.0 °F 43.0 °F 35% 29.79 in 10.0 mi West 9.2 mph - N/A   Clear
11:55 PM 71.1 °F 41.0 °F 34% 29.79 in 10.0 mi WNW 6.9 mph - N/A   Clear